User: anonymous
Location: Unspecified
(0.0000°N, 0.0000°E)
Time: 03:57:42
(UTC+02:00)
Language:

Sapphire - Orbit

View from above orbital plane
View from above orbital plane
View from above satellite
View from above satellite

Ground track
Ground track

The orbit data is extracted from the following two-line orbital elements,

1 26932U 01043D   14233.34317815 -.00000059  00000-0  93421-5 0  6845
2 26932 067.0552 231.4560 0006323 294.4395 065.6046 14.30022126672968
Epoch (UTC): 21 August 2014 08:14:10
Eccentricity: 0.0006323
inclination: 67.0552°
perigee height: 787 km
apogee height: 796 km
right ascension of ascending node: 231.4560°
argument of perigee: 294.4395°
revolutions per day: 14.30022126
mean anomaly at epoch: 65.6046°
orbit number at epoch: 67296

The dashed part of the orbit path shows where the satellite is in the earth's shadow,  

DLR